[[{"header":{"parameterUnit":"m.s-1","parameterCategory":1,"la1":30.2991,"la2":30.254,"lo1":-89.0895,"lo2":-89.0444,"dy":0.0017,"dx":0.0017,"nx":28,"ny":28,"refTime":"2024-04-03T03:00:00:Z","depth":0,"parameterNumber":2,"parameterNumberName":"U-component_of_WINDS"},"data":[0,0,0,0,0,0,0,0,0,0,0,0,0,0,0,0,0,0,0,0,0,0,0,0,0,0,0,0,0,0,0,0,0,0,0,0,0,0,0,0,0,0,0,0,0,0,0,0,0,0,0,0,0,0,0,0,0,0,4.7639,4.764,0,4.7781,4.7783,4.7784,4.774,4.7737,4.7733,4.7731,4.7878,4.7884,4.7891,0,0,0,0,0,0,0,0,0,0,0,0,0,4.733,4.7336,4.7638,4.764,4.7642,4.7781,4.7783,4.7785,4.774,4.7736,4.7733,4.7729,4.7876,4.7884,4.7892,0,0,0,0,0,0,0,0,0,0,0,0,0,4.7468,4.7338,4.7638,4.7636,4.7638,4.7781,4.7783,4.7785,4.7741,4.7736,4.7732,4.7728,4.7873,4.7883,4.7893,4.8046,0,0,4.7924,4.7928,0,0,0,0,0,0,0,0,4.746,4.7479,4.7635,4.7637,4.7638,4.7738,4.7728,4.7873,4.7742,4.7702,4.7731,4.7725,4.7835,4.7848,4.7885,4.8053,4.8059,4.7925,4.7931,4.7935,4.7938,0,0,0,0,0,0,0,4.745,4.7473,4.7695,4.7637,4.764,4.763,4.7644,4.7755,4.7792,4.7705,4.7702,4.7719,4.7835,4.7875,4.7888,4.8062,4.7924,4.7933,4.794,4.7943,4.8367,4.8372,0,0,0,0,0,0,4.744,4.7465,4.769,4.7699,4.7536,4.7639,4.7655,4.7711,4.7791,4.7799,4.7723,4.7717,4.786,4.7876,4.7893,4.8081,4.7935,4.7944,4.795,4.8362,4.8369,4.8374,0,0,0,0,0,0,4.7433,4.746,4.7685,4.7582,4.7609,4.7649,4.7712,4.7716,4.7756,4.7805,4.7811,4.7757,4.7857,4.7879,4.8009,4.8085,4.7949,4.7958,4.8356,4.8364,4.8371,4.8456,0,0,0,0,0,0,4.7424,4.7458,4.7516,4.7583,4.7615,4.7798,4.7716,4.7722,4.7773,4.7766,4.7838,4.7846,4.7855,4.7995,4.8019,4.8097,4.7966,4.835,4.836,4.8369,4.8447,4.8466,4.8483,0,0,0,0,0,4.7414,4.7534,4.7519,4.7546,4.7688,4.7802,4.7821,4.7829,4.7779,4.7839,4.7871,4.7844,4.8073,4.8008,4.8036,4.8117,4.8345,4.8357,4.8368,4.8439,4.8462,4.8482,0,0,0,0,0,0,4.7474,4.7542,4.7527,4.7672,4.7732,4.7795,4.787,4.7853,4.7928,4.7918,4.7925,4.7942,4.8077,4.811,4.8037,4.8272,4.8202,4.8219,4.8246,4.8269,4.8286,4.8276,4.7975,0,0,0,0,0,4.7504,4.7591,4.7646,4.7769,4.78,4.783,4.788,4.7881,4.7943,4.7968,4.801,4.8072,4.8158,4.8215,4.8296,4.8451,4.8468,4.8521,4.8539,4.8553,4.8569,4.8657,4.8682,4.8413,4.8412,4.8412,0,0,4.7567,4.7615,4.767,4.7782,4.7829,4.792,4.7851,4.7949,4.8018,4.7983,4.811,4.8143,4.8213,4.8357,4.8423,4.8389,4.8647,4.8568,4.8579,4.8587,4.8672,4.8697,4.872,4.842,4.8419,4.8418,0,0,4.773,4.7774,4.7883,4.7931,4.8003,4.8022,4.8049,4.8115,4.8135,4.8263,4.824,4.8321,4.8469,4.8521,4.8567,4.8752,4.8731,4.8778,4.8872,4.8957,4.8978,4.8997,4.9067,4.9091,4.8793,4.8794,4.8794,0,4.78,4.7935,4.7941,4.8042,4.8094,4.8067,4.8179,4.8225,4.832,4.8357,4.8317,4.8505,4.8549,4.8707,4.8753,4.879,4.8822,4.8771,4.8975,4.8994,4.9012,4.9078,4.9104,4.8799,4.8799,4.8798,4.8797,0,4.8019,4.8114,4.8193,4.8287,4.8347,4.8452,4.8476,4.8536,4.8533,4.8557,4.8689,4.8742,4.8836,4.8873,4.887,4.9032,4.9009,4.8972,4.8902,4.9043,4.9105,4.913,4.8807,4.8805,4.8803,4.8802,0,0,4.8224,4.832,4.8349,4.8393,4.8471,4.8545,4.865,4.8742,4.8796,4.8862,4.8953,4.908,4.9047,4.9099,4.9102,4.9177,4.9325,4.9131,4.9133,4.9168,4.951,4.954,4.9569,4.931,4.9315,4.9319,4.9505,0,4.8395,4.8581,4.859,4.876,4.8849,4.8826,4.8919,4.8978,4.9004,4.9084,4.9113,4.9204,4.9152,4.9184,4.9257,4.9291,4.9394,4.9277,4.9397,4.9402,4.9383,4.9601,4.9631,4.9805,4.953,4.9534,4.9537,0,4.862,4.8695,4.8874,4.8942,4.898,4.9063,4.915,4.9226,4.9293,4.9307,4.9367,4.936,4.947,4.9395,4.9549,4.947,4.9519,4.9544,4.9551,4.9564,4.9479,4.9623,4.986,4.9887,4.9575,4.9571,4.9569,0,4.8755,4.89,4.9027,4.9064,4.9146,4.9206,4.9243,4.9306,4.9361,4.9437,4.9474,4.9562,4.9611,4.9679,4.9697,4.964,4.9853,4.9777,4.987,4.987,4.9917,4.9914,5.0168,4.9944,4.9944,4.9944,4.9943,0,4.8947,4.9058,4.909,4.9168,4.9293,4.9302,4.9426,4.9459,4.9516,4.9601,4.9586,4.9667,4.9684,4.9769,4.9783,4.9911,4.9932,4.9948,4.9952,4.9952,4.995,4.9986,4.9975,4.995,4.9949,4.9948,4.9946,0,4.912,4.9145,4.9282,4.9349,4.9369,4.9458,4.9516,4.9592,4.9616,4.9726,4.9752,4.9791,4.9891,4.9915,5.0033,5.0043,5.0195,5.0184,5.0172,5.0173,5.0265,5.0257,5.0553,5.0593,5.034,5.0342,5.0344,0,4.9242,4.9328,4.9404,4.9461,4.9501,4.9591,4.9648,4.9662,4.9722,4.9807,4.9874,4.9972,5.0051,5.0212,5.0252,5.0343,5.0337,5.0434,5.0351,5.0349,5.0343,5.0339,5.0349,5.0451,5.0454,5.0456,5.0458,0,4.9458,4.9467,4.9549,4.9638,4.9707,4.9777,4.9844,4.9892,4.9915,4.9984,5.0086,5.0147,5.0269,5.0368,5.046,5.05,5.0485,5.0483,5.051,5.0513,5.0503,5.0513,5.0219,5.0477,5.0475,5.0474,5.0473,5.0472,4.9612,4.9688,4.9754,4.9848,4.99,4.9964,5.004,5.0074,5.0159,5.026,5.0262,5.0375,5.0442,5.0565,5.061,5.0699,5.067,5.0707,5.0718,5.0728,5.0737,5.0487,5.0715,5.0715,5.0714,5.0714,5.0714,0,4.9829,4.9871,4.9957,5.0053,5.0127,5.0105,5.0179,5.0243,5.0342,5.0406,5.0485,5.0604,5.07,5.0748,5.0844,5.0906,5.0902,5.0931,5.0928,5.0938,5.0757,5.0725,5.0933,5.0933,5.0933,5.0933,5.0933,5.0933,4.9952,5.008,5.0097,5.0253,5.0294,5.0403,5.0448,5.0508,5.0559,5.0693,5.0773,5.0803,5.0862,5.0963,5.1051,5.1063,5.11,5.1134,5.1143,5.0973,5.095,5.0929,5.09,5.1141,5.1142,5.1317,5.1319,5.132]},{"header":{"parameterUnit":"m.s-1","parameterCategory":1,"la1":30.2991,"la2":30.254,"lo1":-89.0895,"lo2":-89.0444,"dy":0.0017,"dx":0.0017,"nx":28,"ny":28,"refTime":"2024-04-03T03:00:00:Z","depth":0,"parameterNumber":3,"parameterNumberName":"V-component_of_WINDS"},"data":[0,0,0,0,0,0,0,0,0,0,0,0,0,0,0,0,0,0,0,0,0,0,0,0,0,0,0,0,0,0,0,0,0,0,0,0,0,0,0,0,0,0,0,0,0,0,0,0,0,0,0,0,0,0,0,0,0,0,-5.3278,-5.328,0,-5.344,-5.3442,-5.3444,-5.3442,-5.3439,-5.3437,-5.3435,-5.3601,-5.3607,-5.3613,0,0,0,0,0,0,0,0,0,0,0,0,0,-5.2965,-5.297,-5.3278,-5.328,-5.3282,-5.344,-5.3442,-5.3445,-5.3442,-5.3439,-5.3437,-5.3434,-5.3599,-5.3606,-5.3614,0,0,0,0,0,0,0,0,0,0,0,0,0,-5.3111,-5.2972,-5.3277,-5.33,-5.3303,-5.344,-5.3442,-5.3445,-5.3443,-5.3439,-5.3436,-5.3433,-5.3596,-5.3605,-5.3615,-5.374,0,0,-5.3644,-5.3649,0,0,0,0,0,0,0,0,-5.3103,-5.3123,-5.3294,-5.3298,-5.3303,-5.3417,-5.3393,-5.3544,-5.3443,-5.339,-5.3435,-5.3431,-5.3542,-5.3556,-5.3594,-5.3747,-5.3755,-5.3645,-5.3651,-5.3655,-5.3658,0,0,0,0,0,0,0,-5.3093,-5.3116,-5.3342,-5.3297,-5.3302,-5.3301,-5.3319,-5.3421,-5.3482,-5.3394,-5.3394,-5.3414,-5.3544,-5.3584,-5.3598,-5.3757,-5.3645,-5.3654,-5.366,-5.3663,-5.4021,-5.4025,0,0,0,0,0,0,-5.3078,-5.3107,-5.3337,-5.3347,-5.3193,-5.331,-5.3329,-5.3384,-5.3481,-5.3493,-5.3416,-5.3413,-5.357,-5.3586,-5.3603,-5.3755,-5.3655,-5.3664,-5.367,-5.4018,-5.4022,-5.4026,0,0,0,0,0,0,-5.3071,-5.3099,-5.333,-5.3227,-5.3257,-5.3319,-5.338,-5.3389,-5.3429,-5.3498,-5.3509,-5.3446,-5.3568,-5.359,-5.3706,-5.3761,-5.3669,-5.3677,-5.4013,-5.4019,-5.4024,-5.4061,0,0,0,0,0,0,-5.3062,-5.3096,-5.3144,-5.3228,-5.3262,-5.343,-5.3384,-5.3394,-5.3446,-5.3443,-5.3529,-5.354,-5.3567,-5.3692,-5.3716,-5.3773,-5.3685,-5.4009,-5.4016,-5.4023,-5.4055,-5.4067,-5.4077,0,0,0,0,0,-5.3051,-5.3148,-5.3146,-5.3174,-5.3323,-5.3433,-5.3453,-5.3482,-5.3451,-5.3499,-5.3544,-5.3537,-5.3752,-5.3704,-5.373,-5.3791,-5.4005,-5.4014,-5.4022,-5.405,-5.4064,-5.4077,0,0,0,0,0,0,-5.3067,-5.3159,-5.3159,-5.3285,-5.3352,-5.3433,-5.3495,-5.3496,-5.3573,-5.3567,-5.3599,-5.3619,-5.3735,-5.3775,-5.372,-5.3917,-5.3875,-5.3889,-5.3886,-5.3901,-5.3912,-5.3899,-5.3693,0,0,0,0,0,-5.3086,-5.3168,-5.3243,-5.3348,-5.3381,-5.3432,-5.3481,-5.3498,-5.3568,-5.3596,-5.3649,-5.3716,-5.3799,-5.3853,-5.3932,-5.4061,-5.408,-5.4117,-5.4128,-5.4137,-5.4148,-5.4219,-5.4236,-5.4054,-5.4054,-5.4054,0,0,-5.3124,-5.3185,-5.3234,-5.3352,-5.3406,-5.3489,-5.3456,-5.3546,-5.3608,-5.3609,-5.3722,-5.3763,-5.3841,-5.3964,-5.4021,-5.4001,-5.4203,-5.4147,-5.4154,-5.4161,-5.4229,-5.4246,-5.4262,-5.406,-5.4059,-5.4058,0,0,-5.3237,-5.3291,-5.3384,-5.3438,-5.352,-5.3554,-5.3576,-5.3658,-5.3685,-5.3799,-5.3802,-5.3877,-5.4019,-5.4074,-5.4121,-5.4256,-5.4253,-5.4282,-5.4339,-5.4408,-5.4422,-5.4435,-5.4482,-5.4499,-5.4293,-5.4293,-5.4293,0,-5.3274,-5.34,-5.3431,-5.3522,-5.3574,-5.358,-5.3674,-5.3725,-5.3829,-5.3864,-5.3841,-5.402,-5.4073,-5.4209,-5.4242,-5.428,-5.4306,-5.4271,-5.4418,-5.4431,-5.4443,-5.4489,-5.4507,-5.4296,-5.4296,-5.4295,-5.4295,0,-5.3442,-5.353,-5.3595,-5.3695,-5.3755,-5.3846,-5.3891,-5.3948,-5.396,-5.3996,-5.4112,-5.4177,-5.427,-5.4304,-5.4316,-5.4442,-5.4427,-5.4411,-5.4368,-5.4463,-5.4506,-5.4524,-5.43,-5.4299,-5.4298,-5.4297,0,0,-5.3567,-5.3684,-5.3707,-5.3753,-5.3844,-5.3913,-5.4005,-5.4097,-5.4144,-5.4216,-5.4294,-5.4415,-5.4401,-5.4454,-5.4473,-5.4534,-5.4636,-5.451,-5.4512,-5.453,-5.4777,-5.4787,-5.4807,-5.4636,-5.4639,-5.4642,-5.477,0,-5.3688,-5.3852,-5.3883,-5.4026,-5.4107,-5.4115,-5.4196,-5.4261,-5.4298,-5.4372,-5.4413,-5.4498,-5.4473,-5.4505,-5.4566,-5.4611,-5.4686,-5.4602,-5.4707,-5.4711,-5.4685,-5.483,-5.4841,-5.4958,-5.4787,-5.479,-5.4792,0,-5.385,-5.3926,-5.4077,-5.4158,-5.4194,-5.4265,-5.4352,-5.4423,-5.4497,-5.452,-5.458,-5.4593,-5.469,-5.4644,-5.4777,-5.472,-5.4765,-5.4794,-5.4799,-5.4808,-5.4756,-5.4841,-5.4997,-5.5014,-5.482,-5.4817,-5.4815,0,-5.3924,-5.4065,-5.4173,-5.4212,-5.431,-5.436,-5.4403,-5.4474,-5.4527,-5.4604,-5.4638,-5.4725,-5.4771,-5.4838,-5.4874,-5.4838,-5.5004,-5.4962,-5.5025,-5.5024,-5.5057,-5.5054,-5.522,-5.509,-5.509,-5.5089,-5.5089,0,-5.4055,-5.4146,-5.4208,-5.4274,-5.4377,-5.4413,-5.4514,-5.4557,-5.462,-5.4695,-5.4708,-5.4778,-5.4822,-5.4898,-5.4927,-5.5032,-5.5054,-5.5074,-5.508,-5.5072,-5.5069,-5.51,-5.5092,-5.5094,-5.5093,-5.5092,-5.5091,0,-5.4154,-5.4199,-5.4317,-5.4401,-5.4424,-5.4496,-5.4567,-5.4632,-5.467,-5.4765,-5.4789,-5.4848,-5.4939,-5.4982,-5.5094,-5.5114,-5.5233,-5.5234,-5.5207,-5.5209,-5.5269,-5.5262,-5.5459,-5.5486,-5.534,-5.5341,-5.5342,0,-5.4233,-5.4304,-5.4395,-5.4446,-5.449,-5.4573,-5.4628,-5.4666,-5.4722,-5.4813,-5.4867,-5.4958,-5.5033,-5.5178,-5.523,-5.5316,-5.5319,-5.5383,-5.5332,-5.5321,-5.5318,-5.5312,-5.5319,-5.5391,-5.5392,-5.5393,-5.5394,0,-5.4368,-5.4387,-5.4465,-5.4552,-5.4617,-5.4687,-5.4756,-5.4797,-5.4847,-5.491,-5.5003,-5.5061,-5.5176,-5.5267,-5.5357,-5.5401,-5.5406,-5.541,-5.5429,-5.542,-5.54,-5.541,-5.523,-5.5405,-5.5404,-5.5403,-5.5402,-5.5402,-5.4459,-5.4522,-5.4596,-5.4683,-5.4739,-5.4803,-5.4868,-5.4915,-5.4993,-5.509,-5.5109,-5.5207,-5.5281,-5.5402,-5.545,-5.5527,-5.5512,-5.554,-5.5547,-5.5552,-5.5555,-5.539,-5.5544,-5.5544,-5.5544,-5.5543,-5.5543,0,-5.4593,-5.4641,-5.4721,-5.4817,-5.4886,-5.4886,-5.4963,-5.502,-5.5107,-5.5175,-5.5249,-5.5356,-5.5444,-5.5505,-5.5594,-5.5644,-5.5649,-5.5666,-5.5662,-5.5672,-5.5563,-5.5537,-5.5661,-5.5661,-5.5661,-5.5661,-5.5661,-5.5661,-5.467,-5.4777,-5.4805,-5.494,-5.4989,-5.5085,-5.5129,-5.5188,-5.5243,-5.5362,-5.5435,-5.5475,-5.554,-5.5635,-5.5715,-5.5731,-5.5762,-5.578,-5.5795,-5.5692,-5.5679,-5.5667,-5.5643,-5.5787,-5.5787,-5.5897,-5.5898,-5.5898]}]]